Weather reports worldwide

Advertisment
St-Auban-Sur-Durance, France (7588): temperature & dewpoint: 08.07.2020 12:00:00 - 14.07.2020 12:00:00 (CEST)St-Auban-Sur-Durance, France (7588): temperature 5cm: 08.07.2020 12:00:00 - 14.07.2020 12:00:00 (CEST)St-Auban-Sur-Durance, France (7588): temperature -20cm: 08.07.2020 12:00:00 - 14.07.2020 12:00:00 (CEST)St-Auban-Sur-Durance, France (7588): wind speed & gusts: 08.07.2020 12:00:00 - 14.07.2020 12:00:00 (CEST)St-Auban-Sur-Durance, France (7588): wind direction: 08.07.2020 12:00:00 - 14.07.2020 12:00:00 (CEST)St-Auban-Sur-Durance, France (7588): reduced air pressure: 08.07.2020 12:00:00 - 14.07.2020 12:00:00 (CEST)St-Auban-Sur-Durance, France (7588): visibility: 08.07.2020 12:00:00 - 14.07.2020 12:00:00 (CEST)St-Auban-Sur-Durance, France (7588): sunshine duration: 08.07.2020 12:00:00 - 14.07.2020 12:00:00 (CEST)St-Auban-Sur-Durance, France (7588): precipitation: 08.07.2020 12:00:00 - 14.07.2020 12:00:00 (CEST)
Date & Time tt [°C] td [°C] tt 5cm [°C] tt -20cm [°C] ff [km/h] ff [kn] fx [km/h] fx [kn] dd ppp [hPa] vv [km] sd [min] rr [mm]
14.07.2020 12:00:00 24,9 12,5 35,4 26,3 8 4 18 10 SW 1013,5 20 58 0,0
14.07.2020 11:00:00 23,7 10,0 31,0 26,3 6 4 18 10 NE 1014,2 20 60 0,0
14.07.2020 10:00:00 21,3 8,9 23,3 26,5 12 7 21 12 NNE 1015,0 20 56 0,0
14.07.2020 09:00:00 17,8 9,2 22,3 26,6 6 3 14 8 NE 1016,1 20 42 0,0
14.07.2020 08:00:00 15,3 9,6 14,0 26,9 8 4 16 9 ENE 1016,6 20 51 0,0
14.07.2020 07:00:00 12,2 9,4 11,8 27,1 8 4 14 8 NE 1017,2 20 18 0,0
14.07.2020 06:00:00 11,7 9,4 11,2 27,4 7 4 12 6 NE 1017,3 20 0 0,0
14.07.2020 05:00:00 12,7 10,9 12,0 27,6 6 3 12 7 NNE 1016,8 20 0 0,0
14.07.2020 04:00:00 13,3 10,8 12,5 27,9 9 5 13 7 NNE 1016,6 20 0 0,0
14.07.2020 03:00:00 13,9 11,8 13,1 28,1 5 3 10 5 NE 1016,7 20 0 0,0
14.07.2020 02:00:00 14,9 12,0 13,8 28,3 5 3 10 6 NNE 1016,7 20 0 0,0
14.07.2020 01:00:00 16,1 12,5 15,0 28,4 3 1 11 6 N 1016,5 20 0 0,0
14.07.2020 00:00:00 17,5 12,8 16,8 28,6 3 2 9 5 ESE 1016,2 20 0 0,0
13.07.2020 23:00:00 18,9 13,1 18,3 28,7 6 3 13 7 NW 1016,1 20 0 0,0
13.07.2020 22:00:00 21,8 13,4 20,9 28,7 7 4 32 17 S 1015,2 20 0 0,0
13.07.2020 21:00:00 24,7 12,9 24,8 28,7 9 5 22 12 SSW 1013,9 20 31 0,0
13.07.2020 20:00:00 27,5 12,3 31,6 28,7 5 3 24 13 SSE 1013,1 20 57 0,0
13.07.2020 19:00:00 28,7 11,7 29,6 28,7 6 3 23 12 SE 1012,7 20 29 0,0
13.07.2020 18:00:00 26,1 14,5 28,4 28,6 12 7 32 17 ENE 1013,3 20 0 0,0
13.07.2020 17:00:00 27,5 10,7 29,8 28,4 18 10 38 20 S 1013,7 20 0 0,0
13.07.2020 16:00:00 28,2 10,4 29,0 28,3 16 9 27 15 S 1014,2 20 1 0,0
13.07.2020 15:00:00 27,8 12,6 32,9 28,0 9 5 22 12 S 1014,9 20 34 0,0
13.07.2020 14:00:00 27,8 12,6 35,1 27,9 9 5 29 16 W 1015,6 20 36 0,0
13.07.2020 13:00:00 27,0 14,7 29,4 27,9 10 6 19 10 SSW 1016,6 20 9 0,0
13.07.2020 12:00:00 25,3 13,5 30,2 27,8 11 6 18 10 SSW 1017,2 17 2 0,0
13.07.2020 11:00:00 25,5 15,5 33,2 27,8 4 2 15 8 SSE 1017,3 20 40 0,0
13.07.2020 10:00:00 23,5 15,8 25,9 27,9 9 5 18 10 NE 1018,0 20 45 0,0
13.07.2020 09:00:00 21,3 15,4 23,4 28,1 6 4 13 7 ENE 1018,5 18 18 0,0
13.07.2020 08:00:00 19,3 14,5 21,1 28,3 4 2 10 6 NE 1018,9 20 19 0,0
13.07.2020 07:00:00 18,3 14,6 18,6 28,4 6 3 11 6 NNE 1019,1 20 30 0,0
13.07.2020 06:00:00 17,4 15,0 18,1 28,6 5 3 11 6 ENE 1019,2 20 0 0,0
13.07.2020 05:00:00 18,0 15,6 17,9 28,8 6 3 11 6 NNE 1018,9 20 0 0,0
13.07.2020 04:00:00 18,4 15,6 18,3 29,0 5 3 10 5 NNE 1018,8 20 0 0,0
13.07.2020 03:00:00 19,6 15,3 19,5 29,2 6 4 13 7 ESE 1019,0 20 0 0,0
13.07.2020 02:00:00 20,5 15,7 20,5 29,3 7 4 14 8 ESE 1019,2 20 0 0,0
13.07.2020 01:00:00 20,5 16,1 20,3 29,5 0 0 11 6 N 1019,4 20 0 0,0
13.07.2020 00:00:00 20,4 16,2 20,1 29,6 9 5 10 6 WSW 1019,2 20 0 0,0
12.07.2020 23:00:00 22,3 16,8 21,3 29,7 3 2 14 8 WSW 1018,1 20 0 0,0
12.07.2020 22:00:00 24,1 16,6 23,8 29,7 5 3 37 20 S 1017,1 20 0 0,0
12.07.2020 21:00:00 25,5 15,2 27,0 29,7 21 11 41 22 S 1016,4 20 18 0,0
12.07.2020 20:00:00 27,2 13,9 29,1 29,6 24 13 37 20 SSW 1015,7 20 27 0,0
12.07.2020 19:00:00 28,2 14,4 30,9 29,3 21 11 32 17 SSW 1015,1 20 4 0,0
12.07.2020 18:00:00 28,8 14,6 32,6 29,0 16 9 31 17 S 1015,2 20 27 0,0
12.07.2020 17:00:00 29,5 14,9 34,2 28,7 18 10 31 17 S 1015,1 20 48 0,0
12.07.2020 16:00:00 30,8 14,8 39,8 28,2 18 10 39 21 SSW 1015,2 20 60 0,0
12.07.2020 15:00:00 30,2 14,7 39,9 27,9 22 12 32 18 SSW 1015,7 20 60 0,0
12.07.2020 14:00:00 29,0 14,8 40,3 27,5 17 9 28 15 SSW 1015,8 20 60 0,0
12.07.2020 13:00:00 28,1 14,3 40,0 27,4 13 7 22 12 SSW 1016,2 20 60 0,0
12.07.2020 12:00:00 27,1 12,7 35,0 27,3 8 4 23 12 E 1016,3 20 60 0,0
12.07.2020 11:00:00 25,0 11,5 30,6 27,4 11 6 28 15 NE 1017,0 20 60 0,0
12.07.2020 10:00:00 22,6 11,0 27,3 27,5 15 8 33 18 NNE 1017,4 20 60 0,0
12.07.2020 09:00:00 20,8 10,9 24,9 27,7 20 11 34 18 NNE 1017,3 20 60 0,0
12.07.2020 08:00:00 19,2 10,5 18,9 27,9 9 5 28 15 NE 1017,4 20 60 0,0
12.07.2020 07:00:00 17,5 10,4 16,7 28,2 11 6 25 13 ENE 1017,4 20 19 0,0
12.07.2020 06:00:00 17,2 10,1 15,4 28,4 9 5 22 12 NE 1017,3 20 0 0,0
12.07.2020 05:00:00 17,2 10,1 16,2 28,6 8 4 21 11 NE 1016,9 20 0 0,0
12.07.2020 04:00:00 18,0 10,4 16,6 28,9 11 6 30 16 N 1016,6 20 0 0,0
12.07.2020 03:00:00 19,0 10,3 19,6 29,1 15 8 33 18 NE 1016,0 20 0 0,0
12.07.2020 02:00:00 19,9 10,3 20,5 29,3 15 8 32 18 NE 1015,5 20 0 0,0
12.07.2020 01:00:00 20,8 10,0 21,2 29,5 15 8 39 21 NNE 1015,2 20 0 0,0
12.07.2020 00:00:00 21,6 10,1 22,0 29,7 18 10 40 21 NNE 1014,7 20 0 0,0
11.07.2020 23:00:00 22,3 10,4 22,7 29,7 23 12 43 23 N 1014,5 20 0 0,0
11.07.2020 22:00:00 23,3 10,0 23,5 29,9 17 9 36 19 N 1013,9 20 0 0,0
11.07.2020 21:00:00 24,6 8,9 25,0 29,7 18 10 38 21 N 1013,0 20 31 0,0
11.07.2020 20:00:00 26,7 9,5 30,3 29,7 20 11 45 25 N 1012,2 20 60 0,0
11.07.2020 19:00:00 27,8 10,0 33,2 29,5 28 15 49 26 N 1011,7 20 60 0,0
11.07.2020 18:00:00 29,0 11,1 36,0 29,2 32 17 54 29 N 1011,5 20 60 0,0
11.07.2020 17:00:00 29,0 12,8 37,2 28,9 30 16 47 26 N 1011,7 20 60 0,0
11.07.2020 16:00:00 29,8 13,1 34,9 28,5 25 13 40 22 N 1011,7 20 58 0,0
11.07.2020 15:00:00 29,0 14,8 31,3 28,2 22 12 42 23 N 1011,9 20 27 0,0
11.07.2020 14:00:00 29,8 15,1 37,6 27,9 19 10 44 24 NNE 1012,0 20 60 0,0
11.07.2020 13:00:00 28,5 14,7 35,3 27,8 19 11 46 25 NNE 1012,6 20 60 0,0
11.07.2020 12:00:00 26,9 14,0 34,0 27,7 26 14 41 22 N 1013,2 20 60 0,0
11.07.2020 11:00:00 25,8 14,3 32,5 27,8 26 14 45 25 N 1013,5 20 60 0,0
11.07.2020 10:00:00 24,0 14,4 25,3 27,9 17 9 43 23 N 1014,1 20 46 0,0
11.07.2020 09:00:00 22,2 13,8 25,2 28,0 26 14 45 25 N 1014,4 20 50 0,0
11.07.2020 08:00:00 21,4 14,1 22,3 28,2 18 10 35 19 NNE 1014,3 20 60 0,0
11.07.2020 07:00:00 21,0 13,9 22,2 28,3 22 12 40 22 N 1014,4 20 0 0,0
11.07.2020 06:00:00 21,4 14,1 22,2 28,6 20 11 36 19 N 1014,0 20 0 0,0
11.07.2020 05:00:00 21,6 14,0 22,5 28,7 13 7 22 12 N 1013,9 20 0 0,0
11.07.2020 04:00:00 22,4 13,7 23,2 28,9 12 7 29 16 N 1013,6 20 0 0,0
11.07.2020 03:00:00 22,7 13,5 23,8 29,0 19 10 37 20 NNE 1013,7 20 0 0,0
11.07.2020 02:00:00 23,4 13,3 24,1 29,2 8 5 15 8 NE 1013,8 20 0 0,0
11.07.2020 01:00:00 23,6 12,9 22,8 29,3 9 5 16 9 NE 1013,9 20 0 0,0
11.07.2020 00:00:00 23,0 15,3 23,5 29,4 6 3 10 5 ESE 1014,8 20 0 0,0
10.07.2020 23:00:00 24,0 14,7 23,6 29,5 5 3 10 5 S 1014,6 20 0 0,0
10.07.2020 22:00:00 24,6 15,0 25,0 29,5 8 4 38 21 W 1013,8 20 0 0,0
10.07.2020 21:00:00 26,4 15,1 27,3 29,4 28 15 44 24 SSW 1012,9 20 0 0,0
10.07.2020 20:00:00 28,2 16,1 29,5 29,3 29 16 45 25 SW 1011,6 20 19 0,0
10.07.2020 19:00:00 32,2 12,4 37,3 29,0 23 13 36 20 SW 1010,1 20 60 0,0
10.07.2020 18:00:00 33,0 12,1 40,4 28,7 25 14 40 22 SSW 1010,1 20 60 0,0
10.07.2020 17:00:00 32,8 12,9 42,3 28,3 15 8 31 17 S 1010,5 20 60 0,0
10.07.2020 16:00:00 31,8 13,5 42,7 27,9 13 7 21 11 S 1011,5 20 60 0,0
10.07.2020 15:00:00 31,2 14,4 42,1 27,5 9 5 17 9 SSW 1012,3 20 60 0,0
10.07.2020 14:00:00 29,8 13,1 40,6 27,3 9 5 22 12 SSW 1013,4 20 60 0,0
10.07.2020 13:00:00 28,9 11,5 39,4 27,1 16 9 29 15 SW 1014,1 20 60 0,0
10.07.2020 12:00:00 27,4 13,3 37,9 27,0 10 5 16 9 SSW 1014,5 20 60 0,0
10.07.2020 11:00:00 26,5 13,6 35,1 27,1 7 4 12 6 S 1015,0 20 60 0,0
10.07.2020 10:00:00 24,3 13,2 30,9 27,2 3 2 14 8 SW 1015,7 20 53 0,0
10.07.2020 09:00:00 21,9 13,5 25,8 27,4 5 3 11 6 ENE 1016,1 20 60 0,0
10.07.2020 08:00:00 19,2 13,6 18,6 27,6 5 3 10 5 E 1016,5 20 60 0,0
10.07.2020 07:00:00 16,9 14,0 15,7 27,8 5 3 8 5 E 1016,7 20 20 0,0
10.07.2020 06:00:00 16,5 13,4 15,8 28,0 2 1 11 6 E 1016,4 20 0 0,0
10.07.2020 05:00:00 16,3 13,8 16,7 28,2 6 3 13 7 NE 1016,0 20 0 0,0
10.07.2020 04:00:00 16,6 13,9 16,6 28,4 6 4 12 7 NE 1016,2 20 0 0,0
10.07.2020 03:00:00 17,1 13,8 17,0 28,6 3 2 8 5 SE 1016,9 20 0 0,0
10.07.2020 02:00:00 17,7 13,8 17,2 28,8 6 3 10 5 ESE 1017,3 20 0 0,0
10.07.2020 01:00:00 18,6 13,7 18,0 29,0 3 2 7 4 E 1017,1 20 0 0,0
10.07.2020 00:00:00 20,0 14,1 19,5 29,1 4 2 11 6 SSE 1016,8 20 0 0,0
09.07.2020 23:00:00 21,8 14,7 20,3 29,1 3 1 11 6 S 1016,2 20 0 0,0
09.07.2020 22:00:00 23,7 14,7 23,0 29,2 6 4 13 7 WSW 1015,3 20 0 0,0
09.07.2020 21:00:00 26,7 15,1 26,9 29,1 8 4 23 12 WSW 1014,1 20 34 0,0
09.07.2020 20:00:00 29,5 14,1 33,3 28,9 14 8 29 16 SSW 1013,2 20 60 0,0
09.07.2020 19:00:00 31,2 10,5 37,3 28,7 19 10 30 16 SSW 1012,8 20 60 0,0
09.07.2020 18:00:00 31,9 11,7 39,9 28,3 20 11 31 17 S 1012,8 20 60 0,0
09.07.2020 17:00:00 31,9 12,7 41,2 27,9 18 10 30 16 S 1013,2 20 60 0,0
09.07.2020 16:00:00 31,3 13,6 41,7 27,5 16 9 31 17 SSW 1013,8 20 60 0,0
09.07.2020 15:00:00 30,9 13,2 41,6 27,1 14 8 26 14 SW 1014,2 20 60 0,0
09.07.2020 14:00:00 30,1 12,5 40,0 26,8 16 9 26 14 SSW 1014,8 20 60 0,0
09.07.2020 13:00:00 29,2 13,4 38,5 26,5 16 9 27 14 SW 1015,4 20 60 0,0
09.07.2020 12:00:00 27,3 13,6 37,7 26,5 13 7 26 14 SSW 1016,0 20 60 0,0
09.07.2020 11:00:00 25,7 12,9 35,9 26,5 8 4 15 8 SW 1016,6 20 60 0,0
09.07.2020 10:00:00 23,8 12,7 29,0 26,7 6 3 21 12 N 1016,4 20 60 0,0
09.07.2020 09:00:00 21,1 12,0 24,8 26,8 9 5 29 16 ENE 1016,6 20 60 0,0
09.07.2020 08:00:00 18,8 12,1 16,4 27,1 13 7 27 15 ENE 1016,7 20 60 0,0
09.07.2020 07:00:00 15,0 11,4 12,8 27,3 6 4 13 7 ENE 1017,8 20 22 0,0
09.07.2020 06:00:00 13,7 11,0 12,9 27,5 5 3 9 5 ENE 1018,3 20 0 0,0
09.07.2020 05:00:00 13,7 10,3 13,7 27,8 5 3 10 6 NW 1018,2 20 0 0,0
09.07.2020 04:00:00 14,5 10,5 14,1 28,0 3 2 6 4 ENE 1018,0 20 0 0,0
09.07.2020 03:00:00 15,3 10,5 15,0 28,2 2 1 10 6 ESE 1018,0 20 0 0,0
09.07.2020 02:00:00 16,8 10,6 16,3 28,4 3 2 8 5 SE 1018,1 20 0 0,0
09.07.2020 01:00:00 18,2 10,8 17,1 28,6 4 2 10 6 W 1018,1 20 0 0,0
09.07.2020 00:00:00 19,6 10,6 18,6 28,7 7 4 10 5 WSW 1017,3 20 0 0,0
08.07.2020 23:00:00 20,7 10,5 20,1 28,8 6 4 9 5 SSW 1016,3 20 0 0,0
08.07.2020 22:00:00 22,7 9,8 21,8 28,8 7 4 11 6 W 1015,0 20 0 0,0
08.07.2020 21:00:00 25,6 9,0 25,2 28,8 7 4 27 15 SW 1013,8 20 34 0,0
08.07.2020 20:00:00 27,9 10,1 31,7 28,6 19 10 29 15 SSW 1013,1 20 60 0,0
08.07.2020 19:00:00 29,6 10,7 35,8 28,3 19 11 29 15 SSW 1012,8 20 60 0,0
08.07.2020 18:00:00 30,5 9,9 39,4 27,9 15 8 26 14 SW 1013,1 20 60 0,0
08.07.2020 17:00:00 30,2 9,7 41,3 27,5 9 5 21 11 SW 1013,6 20 60 0,0
08.07.2020 16:00:00 30,0 9,0 41,7 27,1 8 4 16 9 SE 1014,1 20 60 0,0
08.07.2020 15:00:00 29,4 7,9 38,3 26,7 11 6 23 12 SSW 1014,6 20 60 0,0
08.07.2020 14:00:00 28,5 8,2 38,0 26,5 12 6 24 13 SSW 1015,1 20 60 0,0
08.07.2020 13:00:00 27,5 10,7 38,9 26,3 11 6 22 12 WSW 1015,6 20 60 0,0
08.07.2020 12:00:00 26,5 11,8 36,4 26,2 3 2 16 8 SW 1015,6 20 60 0,0

tt = temperature
td = dewpoint
tt 5cm = temperature 5cm
tt -20cm = temperature -20cm
ff = wind speed
fx = gusts
dd = wind direction
ppp = reduced air pressure
vv = visibility
sd = sunshine duration
rr = precipitation

Next stations